QPF
0.01 0.01 0.01 0.00 0.00 0.00 0.00 0.00 0.01 0.01 0.01 0.01 0.02 0.02 0.03 0.05 0.05 0.04 0.07 0.09 0.09 0.08 0.06 0.06 0.06 0.07 0.08 0.08 0.07 0.07 0.06 0.06 0.06 0.06 0.06 0.07 0.07 0.06
0.01 0.01 0.01 0.01 0.01 0.00 0.00 0.00 0.00 0.01 0.01 0.01 0.02 0.02 0.03 0.03 0.05 0.07 0.08 0.09 0.09 0.08 0.07 0.06 0.05 0.05 0.06 0.07 0.06 0.06 0.06 0.05 0.05 0.04 0.04 0.03 0.04 0.04
0.01 0.02 0.02 0.02 0.02 0.01 0.01 0.01 0.00 0.00 0.01 0.00 0.01 0.02 0.03 0.03 0.05 0.08 0.10 0.10 0.09 0.09 0.07 0.06 0.06 0.06 0.06 0.06 0.05 0.05 0.05 0.05 0.05 0.04 0.03 0.02 0.02 0.02
0.02 0.02 0.02 0.03 0.04 0.02 0.02 0.01 0.01 0.01 0.01 0.01 0.01 0.02 0.02 0.03 0.05 0.07 0.08 0.09 0.11 0.09 0.07 0.07 0.07 0.06 0.06 0.05 0.05 0.04 0.05 0.05 0.05 0.05 0.04 0.03 0.02 0.01
0.03 0.03 0.03 0.04 0.04 0.04 0.04 0.03 0.02 0.01 0.01 0.01 0.01 0.02 0.02 0.02 0.03 0.05 0.06 0.08 0.09 0.09 0.09 0.08 0.08 0.08 0.07 0.06 0.06 0.05 0.04 0.04 0.04 0.05 0.04 0.03 0.02 0.02
0.03 0.04 0.03 0.03 0.04 0.05 0.05 0.05 0.04 0.03 0.03 0.02 0.01 0.01 0.02 0.02 0.03 0.04 0.06 0.08 0.09 0.07 0.09 0.09 0.09 0.10 0.09 0.07 0.06 0.06 0.06 0.05 0.04 0.04 0.04 0.04 0.03 0.02
0.03 0.03 0.04 0.03 0.03 0.03 0.02 0.03 0.04 0.04 0.04 0.03 0.02 0.01 0.01 0.02 0.03 0.04 0.06 0.09 0.10 0.10 0.11 0.10 0.10 0.09 0.09 0.09 0.08 0.07 0.06 0.07 0.06 0.05 0.04 0.04 0.03 0.03
0.02 0.03 0.03 0.03 0.02 0.01 0.00 0.00 0.01 0.02 0.03 0.03 0.03 0.03 0.03 0.03 0.04 0.05 0.06 0.09 0.10 0.11 0.13 0.15 0.14 0.11 0.10 0.09 0.09 0.09 0.09 0.08 0.07 0.06 0.06 0.05 0.04 0.03
0.01 0.03 0.02 0.02 0.03 0.05 0.04 0.02 0.01 0.00 0.00 0.01 0.01 0.02 0.03 0.03 0.05 0.05 0.07 0.10 0.12 0.15 0.18 0.20 0.21 0.20 0.15 0.13 0.15 0.13 0.12 0.12 0.11 0.09 0.07 0.05 0.05 0.04
0.02 0.04 0.05 0.06 0.06 0.08 0.09 0.08 0.07 0.04 0.03 0.01 0.01 0.01 0.01 0.03 0.05 0.05 0.07 0.11 0.13 0.19 0.23 0.26 0.27 0.26 0.23 0.18 0.18 0.17 0.15 0.14 0.12 0.11 0.10 0.07 0.06 0.06
0.02 0.05 0.07 0.09 0.07 0.03 0.04 0.05 0.05 0.06 0.03 0.01 0.01 0.00 0.00 0.00 0.01 0.02 0.04 0.07 0.10 0.13 0.20 0.23 0.27 0.30 0.28 0.24 0.20 0.19 0.17 0.15 0.13 0.12 0.11 0.10 0.08 0.08
0.05 0.06 0.05 0.04 0.02 0.01 0.03 0.05 0.05 0.05 0.06 0.05 0.04 0.02 0.01 0.00 0.00 0.00 0.02 0.06 0.09 0.11 0.15 0.19 0.20 0.25 0.30 0.29 0.25 0.21 0.19 0.18 0.15 0.14 0.12 0.11 0.10 0.05
0.04 0.05 0.06 0.03 0.01 0.00 0.01 0.03 0.04 0.04 0.07 0.08 0.08 0.08 0.06 0.03 0.02 0.01 0.01 0.03 0.08 0.10 0.12 0.16 0.19 0.19 0.21 0.24 0.25 0.23 0.20 0.18 0.15 0.13 0.13 0.12 0.10 0.05
0.01 0.03 0.04 0.01 0.00 0.00 0.00 0.00 0.00 0.00 0.02 0.04 0.05 0.06 0.07 0.06 0.04 0.04 0.03 0.03 0.06 0.09 0.12 0.16 0.18 0.19 0.17 0.16 0.18 0.20 0.22 0.21 0.17 0.12 0.10 0.12 0.10 0.07
0.01 0.01 0.01 0.00 0.00 0.00 0.00 0.00 0.00 0.01 0.02 0.02 0.03 0.04 0.04 0.05 0.07 0.08 0.08 0.08 0.08 0.08 0.09 0.13 0.17 0.20 0.20 0.17 0.15 0.15 0.17 0.20 0.19 0.15 0.12 0.08 0.06 0.04
0.02 0.03 0.01 0.01 0.00 0.01 0.01 0.01 0.01 0.02 0.02 0.03 0.03 0.05 0.05 0.07 0.08 0.08 0.09 0.11 0.11 0.08 0.09 0.10 0.13 0.18 0.21 0.21 0.17 0.14 0.13 0.15 0.16 0.14 0.12 0.09 0.06 0.04
0.02 0.02 0.03 0.05 0.05 0.04 0.05 0.07 0.07 0.06 0.04 0.04 0.05 0.06 0.06 0.07 0.08 0.08 0.10 0.12 0.12 0.09 0.09 0.10 0.12 0.16 0.21 0.22 0.20 0.17 0.14 0.12 0.12 0.11 0.10 0.08 0.05 0.04
0.00 0.01 0.02 0.04 0.07 0.09 0.11 0.11 0.11 0.10 0.09 0.08 0.08 0.07 0.07 0.08 0.08 0.09 0.10 0.11 0.11 0.11 0.10 0.10 0.11 0.13 0.16 0.20 0.19 0.16 0.13 0.12 0.12 0.11 0.08 0.06 0.05 0.03
0.00 0.01 0.02 0.05 0.08 0.11 0.12 0.12 0.11 0.12 0.12 0.12 0.11 0.10 0.09 0.09 0.10 0.10 0.10 0.10 0.11 0.12 0.12 0.11 0.09 0.09 0.11 0.13 0.14 0.14 0.13 0.11 0.11 0.11 0.09 0.05 0.04 0.02
0.02 0.03 0.04 0.07 0.09 0.11 0.11 0.12 0.13 0.14 0.14 0.12 0.12 0.11 0.10 0.10 0.10 0.11 0.11 0.11 0.12 0.13 0.14 0.12 0.08 0.07 0.08 0.08 0.09 0.09 0.10 0.09 0.09 0.10 0.09 0.06 0.04 0.02
0.07 0.07 0.07 0.08 0.09 0.10 0.11 0.12 0.13 0.14 0.14 0.13 0.13 0.12 0.12 0.12 0.11 0.11 0.12 0.13 0.13 0.13 0.13 0.11 0.08 0.09 0.11 0.12 0.11 0.11 0.09 0.08 0.09 0.08 0.08 0.06 0.04 0.02
0.08 0.08 0.08 0.08 0.09 0.11 0.11 0.11 0.12 0.14 0.14 0.14 0.14 0.13 0.13 0.13 0.12 0.13 0.13 0.13 0.13 0.12 0.13 0.14 0.14 0.13 0.11 0.09 0.09 0.10 0.11 0.09 0.09 0.09 0.07 0.06 0.03 0.02
0.08 0.07 0.08 0.09 0.10 0.11 0.12 0.11 0.13 0.14 0.14 0.14 0.14 0.14 0.14 0.13 0.13 0.14 0.14 0.15 0.16 0.15 0.16 0.17 0.16 0.14 0.12 0.10 0.09 0.09 0.10 0.10 0.08 0.07 0.05 0.03 0.02 0.02
MSLP
1015.11 1015.13 1015.20 1015.27 1015.31 1015.29 1015.19 1014.99 1014.71 1014.36 1013.96 1013.54 1013.12 1012.75 1012.42 1012.15 1011.95 1011.82 1011.76 1011.76 1011.82 1011.94 1012.11 1012.32 1012.57 1012.86 1013.19 1013.56 1013.98 1014.46 1015.00 1015.59 1016.23 1016.91 1017.59 1018.26 1018.88 1019.45
1014.57 1014.57 1014.61 1014.67 1014.70 1014.70 1014.63 1014.48 1014.27 1013.98 1013.65 1013.29 1012.93 1012.57 1012.25 1011.96 1011.72 1011.54 1011.41 1011.34 1011.33 1011.37 1011.47 1011.61 1011.80 1012.03 1012.32 1012.66 1013.06 1013.53 1014.07 1014.68 1015.35 1016.06 1016.78 1017.48 1018.14 1018.73
1014.05 1014.02 1014.02 1014.04 1014.06 1014.05 1014.00 1013.90 1013.74 1013.53 1013.27 1012.99 1012.68 1012.37 1012.06 1011.77 1011.50 1011.27 1011.08 1010.94 1010.85 1010.82 1010.84 1010.92 1011.05 1011.23 1011.47 1011.78 1012.16 1012.62 1013.17 1013.79 1014.48 1015.22 1015.97 1016.70 1017.39 1018.01
1013.58 1013.50 1013.46 1013.44 1013.43 1013.41 1013.36 1013.29 1013.18 1013.04 1012.86 1012.65 1012.41 1012.14 1011.86 1011.58 1011.29 1011.02 1010.78 1010.58 1010.42 1010.32 1010.27 1010.28 1010.35 1010.48 1010.68 1010.95 1011.31 1011.76 1012.30 1012.93 1013.64 1014.39 1015.17 1015.93 1016.64 1017.29
1013.16 1013.05 1012.96 1012.89 1012.84 1012.80 1012.75 1012.70 1012.63 1012.55 1012.43 1012.29 1012.11 1011.90 1011.65 1011.38 1011.09 1010.80 1010.51 1010.26 1010.04 1009.88 1009.77 1009.72 1009.73 1009.81 1009.96 1010.20 1010.52 1010.95 1011.47 1012.10 1012.80 1013.56 1014.35 1015.13 1015.87 1016.54
1012.77 1012.62 1012.48 1012.37 1012.29 1012.22 1012.17 1012.13 1012.09 1012.05 1011.99 1011.91 1011.79 1011.63 1011.42 1011.17 1010.88 1010.58 1010.28 1009.98 1009.73 1009.52 1009.36 1009.26 1009.22 1009.24 1009.35 1009.53 1009.81 1010.20 1010.69 1011.28 1011.96 1012.72 1013.51 1014.30 1015.06 1015.77
1012.36 1012.18 1012.01 1011.86 1011.75 1011.66 1011.60 1011.56 1011.55 1011.55 1011.54 1011.51 1011.44 1011.32 1011.15 1010.92 1010.65 1010.36 1010.05 1009.75 1009.47 1009.23 1009.04 1008.90 1008.82 1008.80 1008.85 1008.97 1009.20 1009.52 1009.95 1010.50 1011.14 1011.87 1012.65 1013.45 1014.23 1014.97
1011.89 1011.70 1011.51 1011.34 1011.20 1011.10 1011.03 1011.00 1011.01 1011.03 1011.06 1011.06 1011.03 1010.95 1010.82 1010.62 1010.38 1010.10 1009.81 1009.52 1009.25 1009.01 1008.81 1008.65 1008.54 1008.47 1008.47 1008.53 1008.68 1008.93 1009.29 1009.77 1010.36 1011.04 1011.80 1012.60 1013.40 1014.17
1011.36 1011.16 1010.97 1010.79 1010.64 1010.53 1010.47 1010.44 1010.46 1010.50 1010.55 1010.58 1010.58 1010.52 1010.42 1010.25 1010.04 1009.79 1009.53 1009.28 1009.03 1008.81 1008.63 1008.47 1008.34 1008.25 1008.20 1008.21 1008.28 1008.45 1008.73 1009.12 1009.64 1010.27 1010.99 1011.78 1012.59 1013.39
1010.79 1010.59 1010.40 1010.23 1010.08 1009.98 1009.91 1009.90 1009.92 1009.96 1010.01 1010.05 1010.06 1010.02 1009.93 1009.79 1009.61 1009.40 1009.18 1008.97 1008.78 1008.61 1008.45 1008.32 1008.20 1008.10 1008.02 1007.98 1007.99 1008.08 1008.27 1008.59 1009.03 1009.59 1010.27 1011.03 1011.85 1012.68
1010.21 1010.04 1009.86 1009.70 1009.56 1009.46 1009.40 1009.38 1009.39 1009.43 1009.47 1009.50 1009.50 1009.46 1009.37 1009.24 1009.08 1008.91 1008.74 1008.58 1008.45 1008.33 1008.24 1008.15 1008.07 1007.98 1007.89 1007.82 1007.79 1007.82 1007.94 1008.17 1008.54 1009.04 1009.66 1010.40 1011.21 1012.06
1009.70 1009.55 1009.39 1009.23 1009.10 1008.99 1008.93 1008.89 1008.89 1008.91 1008.92 1008.92 1008.89 1008.82 1008.72 1008.59 1008.44 1008.30 1008.17 1008.07 1008.00 1007.96 1007.94 1007.92 1007.89 1007.84 1007.78 1007.71 1007.65 1007.64 1007.70 1007.88 1008.18 1008.62 1009.19 1009.89 1010.68 1011.53
1009.29 1009.15 1008.99 1008.83 1008.69 1008.58 1008.49 1008.44 1008.40 1008.38 1008.35 1008.31 1008.23 1008.13 1007.99 1007.84 1007.70 1007.57 1007.48 1007.44 1007.44 1007.48 1007.53 1007.60 1007.64 1007.65 1007.63 1007.59 1007.54 1007.52 1007.56 1007.69 1007.94 1008.32 1008.85 1009.50 1010.26 1011.10
1008.97 1008.82 1008.65 1008.48 1008.32 1008.17 1008.06 1007.96 1007.89 1007.82 1007.74 1007.64 1007.52 1007.37 1007.19 1007.02 1006.87 1006.75 1006.69 1006.69 1006.76 1006.87 1007.01 1007.16 1007.29 1007.38 1007.43 1007.44 1007.43 1007.42 1007.46 1007.57 1007.79 1008.14 1008.61 1009.22 1009.94 1010.74
1008.69 1008.52 1008.32 1008.11 1007.91 1007.72 1007.56 1007.43 1007.30 1007.19 1007.06 1006.91 1006.73 1006.54 1006.33 1006.14 1005.98 1005.87 1005.83 1005.87 1006.00 1006.18 1006.40 1006.64 1006.85 1007.03 1007.16 1007.24 1007.29 1007.33 1007.39 1007.51 1007.71 1008.03 1008.47 1009.03 1009.70 1010.45
1008.38 1008.16 1007.91 1007.65 1007.39 1007.15 1006.95 1006.76 1006.60 1006.44 1006.27 1006.09 1005.88 1005.66 1005.43 1005.23 1005.07 1004.97 1004.96 1005.04 1005.21 1005.45 1005.74 1006.06 1006.36 1006.62 1006.84 1007.00 1007.11 1007.21 1007.32 1007.46 1007.67 1007.97 1008.38 1008.90 1009.52 1010.22
1007.95 1007.66 1007.34 1007.02 1006.70 1006.42 1006.16 1005.94 1005.74 1005.56 1005.37 1005.17 1004.96 1004.74 1004.52 1004.32 1004.18 1004.10 1004.12 1004.23 1004.45 1004.74 1005.09 1005.46 1005.84 1006.18 1006.47 1006.71 1006.91 1007.07 1007.23 1007.41 1007.64 1007.95 1008.34 1008.83 1009.40 1010.04
1007.32 1006.97 1006.58 1006.19 1005.82 1005.49 1005.21 1004.96 1004.76 1004.57 1004.39 1004.20 1004.01 1003.81 1003.62 1003.46 1003.35 1003.31 1003.36 1003.51 1003.76 1004.09 1004.49 1004.91 1005.34 1005.74 1006.10 1006.41 1006.68 1006.91 1007.12 1007.36 1007.62 1007.94 1008.33 1008.80 1009.33 1009.93
1006.51 1006.09 1005.64 1005.21 1004.80 1004.44 1004.14 1003.90 1003.70 1003.53 1003.38 1003.23 1003.08 1002.93 1002.79 1002.68 1002.61 1002.62 1002.71 1002.90 1003.18 1003.54 1003.96 1004.42 1004.88 1005.33 1005.74 1006.11 1006.43 1006.73 1007.01 1007.29 1007.60 1007.95 1008.35 1008.81 1009.33 1009.90
1005.54 1005.08 1004.60 1004.14 1003.72 1003.36 1003.07 1002.84 1002.67 1002.54 1002.43 1002.33 1002.23 1002.14 1002.05 1001.99 1001.98 1002.03 1002.16 1002.38 1002.68 1003.07 1003.51 1003.98 1004.47 1004.95 1005.40 1005.82 1006.19 1006.54 1006.88 1007.21 1007.56 1007.95 1008.38 1008.85 1009.37 1009.93
1004.52 1004.04 1003.56 1003.11 1002.71 1002.37 1002.11 1001.92 1001.78 1001.69 1001.62 1001.57 1001.51 1001.46 1001.43 1001.41 1001.44 1001.52 1001.68 1001.92 1002.24 1002.64 1003.09 1003.58 1004.09 1004.59 1005.07 1005.52 1005.94 1006.34 1006.73 1007.11 1007.51 1007.94 1008.40 1008.89 1009.43 1010.01
1003.55 1003.10 1002.66 1002.25 1001.90 1001.61 1001.39 1001.24 1001.14 1001.07 1001.03 1001.00 1000.97 1000.94 1000.92 1000.92 1000.96 1001.06 1001.23 1001.48 1001.81 1002.22 1002.68 1003.18 1003.70 1004.22 1004.73 1005.22 1005.68 1006.12 1006.55 1006.98 1007.42 1007.89 1008.38 1008.91 1009.48 1010.07
1002.74 1002.37 1002.00 1001.66 1001.38 1001.15 1000.99 1000.87 1000.79 1000.74 1000.69 1000.65 1000.60 1000.55 1000.51 1000.50 1000.52 1000.61 1000.77 1001.01 1001.34 1001.74 1002.21 1002.73 1003.27 1003.82 1004.36 1004.89 1005.39 1005.88 1006.35 1006.81 1007.29 1007.79 1008.31 1008.86 1009.45 1010.07
Thickness
5647 5646 5644 5644 5644 5645 5645 5644 5641 5640 5646 5655 5662 5669 5673 5677 5681 5684 5687 5690 5693 5697 5700 5704 5707 5710 5711 5713 5714 5715 5716 5717 5717 5717 5717 5717 5717 5716
5640 5638 5637 5636 5636 5636 5637 5637 5637 5636 5637 5644 5650 5658 5663 5668 5672 5675 5679 5683 5687 5691 5695 5698 5702 5705 5708 5710 5712 5713 5714 5715 5716 5716 5716 5717 5717 5716
5634 5632 5630 5629 5627 5627 5627 5628 5629 5630 5630 5636 5642 5648 5652 5657 5662 5667 5671 5675 5680 5685 5689 5693 5697 5701 5704 5707 5709 5711 5712 5713 5714 5715 5715 5716 5716 5716
5627 5624 5622 5621 5620 5618 5617 5617 5619 5621 5622 5624 5629 5635 5640 5647 5652 5658 5663 5668 5674 5680 5684 5689 5693 5697 5700 5703 5705 5708 5710 5711 5712 5713 5714 5714 5715 5715
5620 5617 5615 5613 5611 5609 5608 5608 5609 5612 5615 5616 5620 5626 5632 5638 5643 5649 5655 5661 5667 5673 5678 5683 5688 5691 5695 5698 5701 5704 5706 5708 5710 5711 5712 5713 5714 5714
5613 5610 5608 5606 5604 5602 5601 5600 5601 5601 5603 5606 5611 5616 5622 5629 5634 5639 5644 5652 5658 5665 5671 5677 5681 5685 5690 5694 5697 5700 5703 5705 5707 5709 5710 5711 5712 5713
5606 5604 5602 5601 5599 5597 5595 5594 5593 5592 5594 5596 5601 5606 5612 5617 5623 5631 5636 5642 5650 5657 5663 5669 5674 5679 5683 5688 5692 5696 5700 5702 5704 5706 5708 5709 5710 5711
5598 5597 5595 5594 5594 5592 5589 5587 5585 5584 5585 5586 5590 5595 5601 5607 5614 5620 5625 5630 5637 5649 5653 5659 5666 5672 5678 5683 5689 5693 5696 5699 5701 5703 5705 5706 5708 5709
5592 5590 5589 5590 5589 5587 5584 5582 5580 5579 5578 5579 5582 5586 5591 5597 5602 5608 5613 5619 5627 5636 5642 5649 5656 5663 5670 5677 5683 5688 5691 5694 5697 5699 5701 5703 5705 5706
5587 5585 5583 5582 5581 5579 5577 5576 5575 5575 5575 5575 5578 5581 5585 5589 5593 5598 5603 5611 5621 5628 5635 5638 5646 5653 5660 5668 5675 5680 5685 5689 5692 5695 5697 5700 5701 5702
5585 5583 5580 5578 5576 5573 5570 5569 5569 5570 5571 5573 5576 5578 5580 5583 5585 5589 5594 5600 5609 5618 5627 5632 5638 5643 5650 5657 5664 5671 5676 5682 5686 5689 5692 5695 5696 5696
5581 5579 5576 5573 5570 5566 5563 5562 5561 5562 5564 5567 5568 5571 5573 5576 5579 5582 5587 5592 5600 5608 5619 5624 5629 5634 5639 5646 5654 5660 5666 5673 5678 5683 5686 5688 5690 5690
5575 5573 5570 5566 5563 5559 5556 5554 5554 5554 5555 5557 5560 5563 5567 5571 5575 5579 5583 5587 5594 5602 5611 5617 5622 5627 5633 5637 5643 5651 5658 5664 5669 5674 5678 5681 5684 5687
5569 5567 5564 5559 5555 5551 5549 5549 5547 5545 5547 5549 5552 5556 5560 5565 5570 5575 5581 5585 5591 5597 5603 5609 5614 5620 5625 5629 5635 5641 5648 5655 5661 5666 5669 5672 5675 5680
5565 5562 5557 5552 5549 5547 5545 5543 5541 5540 5541 5543 5546 5551 5556 5560 5564 5569 5575 5580 5586 5592 5598 5603 5608 5614 5620 5625 5630 5634 5640 5646 5652 5658 5662 5665 5670 5672
5559 5557 5554 5551 5547 5545 5545 5543 5540 5540 5540 5541 5543 5546 5550 5554 5558 5562 5567 5572 5577 5584 5592 5598 5604 5608 5613 5620 5625 5629 5634 5639 5644 5650 5654 5658 5662 5666
5552 5551 5551 5551 5550 5549 5547 5546 5544 5541 5539 5539 5540 5542 5545 5548 5552 5556 5561 5565 5571 5577 5584 5591 5597 5603 5609 5614 5618 5623 5628 5633 5638 5642 5646 5650 5655 5660
5544 5548 5550 5550 5550 5549 5547 5545 5544 5542 5541 5540 5539 5539 5541 5544 5547 5551 5555 5560 5566 5572 5579 5585 5589 5593 5598 5605 5613 5618 5623 5627 5631 5635 5640 5644 5647 5653
5543 5548 5549 5549 5549 5548 5546 5544 5544 5543 5542 5540 5538 5538 5539 5541 5543 5546 5551 5556 5562 5568 5574 5579 5584 5588 5593 5600 5606 5612 5618 5622 5625 5628 5633 5638 5643 5647
5550 5551 5551 5550 5549 5547 5546 5545 5544 5543 5541 5539 5538 5538 5538 5539 5541 5544 5548 5553 5558 5563 5568 5574 5580 5587 5593 5598 5601 5606 5612 5618 5620 5623 5626 5630 5632 5637
5556 5555 5553 5551 5549 5548 5546 5544 5543 5542 5540 5539 5538 5537 5537 5538 5539 5542 5546 5550 5554 5559 5564 5571 5578 5583 5588 5591 5595 5599 5603 5609 5617 5620 5622 5623 5625 5628
5555 5554 5552 5550 5548 5546 5545 5543 5542 5541 5540 5538 5537 5537 5537 5538 5539 5542 5545 5549 5553 5558 5563 5568 5572 5577 5581 5586 5592 5594 5596 5599 5604 5610 5614 5621 5626 5629
5554 5552 5550 5548 5547 5545 5544 5543 5541 5541 5540 5539 5538 5537 5538 5538 5539 5541 5545 5548 5552 5556 5560 5563 5567 5572 5577 5582 5586 5589 5591 5593 5596 5600 5602 5609 5619 5625